Location: Elk Forest
(39.5314°N, 75.8738°W)
Time: 20:11:01
(UTC-05:00)

Daily predictions for brighter satellites

Satellite Brightness Start Highest point End
(mag) Time Altitude Azimuth Time Altitude Azimuth Time Altitude Azimuth
Cosmos 2279 Rocket 4.1 17:38:12 10° N 17:44:17 53° E 17:50:21 10° SSE
Lacrosse 4 Rocket 3.1 17:43:42 10° NNE 17:45:51 14° NE 17:47:59 10° E
Meteor 1-28 Rocket 4.3 17:42:55 10° NE 17:46:03 25° E 17:49:10 10° SSE
Cosmos 1151 Rocket 3.0 17:42:50 10° N 17:47:08 89° W 17:51:27 10° S
Cosmos 372 Rocket 3.9 17:46:39 10° NNW 17:51:47 86° ENE 17:56:53 10° SSE
IDEFIX/ARIANE 42P 3.4 17:46:44 10° S 17:51:52 58° W 17:57:02 10° NNW
Cosmos 540 Rocket 4.0 17:48:45 10° SSW 17:53:52 63° WNW 17:59:00 10° NNE
Aureole 2 Rocket 2.9 17:50:19 10° SSW 17:54:02 75° WNW 17:58:08 10° NNE
Tiangong 1 3.4 17:54:13 10° SSE 17:55:12 11° SE 17:56:13 10° ESE
USA 215 3.9 17:54:17 10° E 18:00:05 35° NNE 18:05:53 10° NW
Cosmos 2058 2.9 17:56:54 10° S 18:01:00 89° W 18:05:07 10° N
Nadezhda 4 Rocket 4.4 17:57:02 10° SSE 18:02:48 40° E 18:08:37 10° NNE
Cosmos 1805 Rocket 3.7 18:00:17 10° S 18:04:39 57° E 18:09:02 10° NNE
Lacrosse 5 4.1 18:04:00 10° N 18:04:53 10° N 18:05:45 10° N
Cosmos 1461 2.9 18:03:24 10° SSW 18:07:37 82° WNW 18:11:42 10° NNE
SKYMED 2 3.5 18:03:40 10° NNE 18:08:01 75° ESE 18:12:21 10° S
Cosmos 1900 4.3 18:03:44 10° NNW 18:08:41 64° ENE 18:13:39 10° SE
Cosmos 2180 Rocket 4.4 18:07:11 10° N 18:13:22 75° E 18:19:36 10° SSE
Cosmos 1626 2.2 18:10:09 10° S 18:13:47 53° E 18:17:26 10° NNE
Aureole 1 Rocket 4.2 18:10:52 10° S 18:15:54 44° E 18:22:27 10° NNE
Sich 1 3.2 18:13:24 10° SSE 18:17:42 50° E 18:22:00 10° NNE
Cosmos 2219 Rocket 4.2 18:14:46 10° WSW 18:19:18 24° NW 18:23:51 10° N
Cosmos 1356 Rocket 3.2 18:17:07 10° S 18:21:03 65° E 18:25:01 10° NNE
Lacrosse 5 rocket 2.7 18:17:45 10° WNW 18:21:19 38° SW 18:25:03 10° SSE
ALOS 3.2 18:20:06 10° ESE 18:23:54 25° ENE 18:27:44 10° NNE
Cosmos 1092 Rocket 4.3 18:19:11 10° SSE 18:25:07 44° E 18:31:04 10° NNE
Cosmos 2333 Rocket 4.1 18:21:19 10° WSW 18:26:04 27° WNW 18:30:52 10° N
Cosmos 1603 4.2 18:21:27 10° S 18:26:32 36° ESE 18:30:06 18° NE
Cosmos 1633 Rocket 3.1 18:23:43 10° S 18:28:01 58° E 18:32:21 10° NNE
Cosmos 292 Rocket 4.3 18:29:17 10° SSE 18:33:34 35° ESE 18:35:32 25° ENE
Coronas F rocket 1.6 18:31:51 10° S 18:33:37 39° SE 18:33:37 39° SE
Cosmos 2278 Rocket 4.1 18:29:19 10° NW 18:34:20 33° WSW 18:39:20 10° SSW
Cosmos 1455 2.0 18:32:54 10° N 18:36:42 74° E 18:40:31 10° SSE
FAST Rocket 4.2 18:35:56 10° SSW 18:38:31 66° W 18:41:24 10° N
USA 229 DEB 3.6 18:34:56 10° SSW 18:41:43 72° ESE 18:47:09 18° NE
USA 229 3.6 18:35:02 10° SSW 18:41:49 71° ESE 18:47:12 18° NE
Abrixas 4.5 18:40:25 10° WNW 18:42:32 18° NNW 18:42:57 17° N
Cosmos 1703 4.5 18:40:58 10° SSW 18:44:40 43° W 18:48:25 10° N
Cosmos 1184 Rocket 3.0 18:42:48 10° SSW 18:46:07 72° W 18:48:43 16° N
SJ-6B 2.8 18:44:14 10° SSE 18:48:18 79° ENE 18:52:27 10° N
Spot 2 Rocket 3.8 18:44:13 10° SE 18:48:56 42° ENE 18:53:40 10° N
Iridium 4 Rocket 2.9 18:48:23 10° S 18:52:50 66° E 18:57:02 10° N
Cosmos 1707 Rocket 4.4 18:50:25 10° NNW 18:54:37 50° W 18:58:49 10° SSW
COSMO-SKYMED 1 4.4 18:52:04 10° N 18:55:55 31° WNW 18:59:44 10° SW
SL-19 R/B 4.2 18:50:34 10° SSE 18:56:21 65° ENE 19:01:54 10° N
Cosmos 2237 Rocket 4.5 18:53:35 10° W 18:57:42 20° NW 19:01:51 10° N
Cosmos 2369 Rocket 3.2 18:57:19 10° N 19:00:59 27° NE 19:00:59 27° NE
H-2A ROCKET BODY 3.8 18:43:01 10° WSW 19:05:41 43° SSW 19:09:18 23° SE
SL-16 R/B 3.5 19:00:31 10° SW 19:05:44 38° WNW 19:11:00 10° N
FREGAT/IRIS 3.6 19:04:02 10° S 19:06:59 48° W 19:09:58 10° NNW
Resurs 01 Rocket 1.4 19:12:14 47° SSE 19:13:28 76° ENE 19:17:56 10° N
Cosmos 923 Rocket 4.0 19:08:58 10° SSW 19:14:10 79° WNW 19:16:59 28° NNE
Cosmos 1933 Rocket 3.4 19:11:14 10° S 19:15:40 89° E 19:16:31 58° N
Cosmos 1680 Rocket 3.4 19:15:22 10° SSW 19:20:35 89° ESE 19:22:05 49° NNE
Cosmos 1655 Rocket 4.0 19:15:45 10° S 19:22:01 61° E 19:24:06 41° NNE
Cosmos 1627 Rocket 4.3 19:18:12 10° S 19:24:23 83° E 19:30:32 10° N
CZ-4C R/B 4.3 19:19:49 10° N 19:23:28 19° NNE 19:23:28 19° NNE
Lacrosse 4 Rocket 1.9 19:20:55 10° NW 19:24:53 56° WSW 19:25:17 53° SW
FENGYUN 3A 3.7 19:24:30 10° S 19:29:51 75° WSW 19:35:15 10° NNW
Tiangong 1 3.9 19:27:55 10° WSW 19:28:39 16° WSW 19:28:39 16° WSW
NOSS 3-1 (C) 3.3 19:27:42 10° SSW 19:32:52 61° SE 19:32:52 61° SE
Cosmos 1470 Rocket 4.5 19:33:04 10° SSW 19:37:15 46° W 19:38:13 39° NW
USA 215 3.2 19:40:52 52° SSE 19:42:41 81° SW 19:49:16 10° NW
Cosmos 1943 3.6 19:37:45 10° SSW 19:41:55 50° S 19:41:55 50° S
Lacrosse 5 4.3 19:46:30 10° NNW 19:47:19 13° N 19:47:19 13° N
ATLAS 5 CENTAUR R/B 4.0 19:45:16 10° NNW 19:47:22 20° N 19:47:22 20° N
Cosmos 2026 Rocket 4.2 19:45:23 10° SSW 19:51:33 67° W 19:55:59 19° N
ALOS 4.0 19:57:05 10° SSW 20:01:12 31° W 20:05:20 10° NW
Cosmos 1943 Rocket 4.5 20:02:12 10° NNW 20:02:43 13° N 20:02:43 13° N
Cosmos 2369 Rocket 4.4 20:41:09 10° NW 20:42:51 19° NW 20:42:51 19° NW
